User: anonymous   Login
Location: Twentynine Palms Airport
(34.1316°N, 115.9458°W)
Time: 23:50:10
(UTC-07:00)
Language:

Oscar 19 - Orbit

View from above orbital plane
View from above orbital plane
View from above satellite
View from above satellite

Ground track
Ground track

The orbit data is extracted from the following two-line orbital elements,

1 20442U 90005G   15118.06080426  .00000170  00000-0  78525-4 0  9997
2 20442 098.5088 054.7081 0010760 300.2437 059.7681 14.32723350319762
Epoch (UTC): 28 April 2015 01:27:33
Eccentricity: 0.0010760
inclination: 98.5088°
perigee height: 775 km
apogee height: 790 km
right ascension of ascending node: 54.7081°
argument of perigee: 300.2437°
revolutions per day: 14.32723350
mean anomaly at epoch: 59.7681°
orbit number at epoch: 31976

The dashed part of the orbit path shows where the satellite is in the earth's shadow,  

DLR